200  
ASUS44 KMOB 181512  
RWRMOB  
REGIONAL WEATHER ROUNDUP  
NATIONAL WEATHER SERVICE MOBILE AL  
900 AM CST THU JAN 18 2018  
 
NOTE: "FAIR" INDICATES FEW OR NO CLOUDS BELOW 12,000 FEET WITH NO  
SIGNIFICANT WEATHER AND/OR S TO VISIBILITY
.  
 
* THESE STATIONS ARE PART OF THE UNIVERSITY OF SOUTH ALABAMA  
MESONET AND ARE NOT UNDER NWS OR FAA QUALITY CONTROL.
 
 
ALZ061>064-181600-  
COASTAL ALABAMA  
 
CITY SKY/WX TMP DP RH WIND PRES REMARKS
 
MOBILE REG APT FAIR 26 13 57 N12 30.56R WCI 16  
BROOKLEY FIELD FAIR 28 15 58 N9 30.58R WCI 19  
USA CAMPUS* NOT AVBL  
DOG RIVER* NOT AVBL  
 
 
CITY SKY/WX TMP DP RH WIND PRES REMARKS
 
GULF SHORES FAIR 27 14 57 N7 30.54F WCI 19  
 

 
 
ALZ051>060-181600-  
INTERIOR SOUTHWEST AND SOUTH CENTRAL ALABAMA  
 
CITY SKY/WX TMP DP RH WIND PRES REMARKS
 
GREENVILLE FAIR 25 10 53 N5 30.52R WCI 19  
EVERGREEN FAIR 25 12 58 N8 30.54R WCI 16  
ATMORE* N/A N/A N/A N/A VRB9 N/A  
ANDALUSIA/OPP FAIR 29 12 49 N6 30.52R WCI 23  
ANDALUSIA* N/A 25 14 63 VRB6 30.50R WCI 18  
FLORALA APT FAIR 27 13 55 N10 30.53R WCI 17  
FLORALA* N/A 27 14 59 W6 31.34R WCI 20  
 

 
 
FLZ001>006-181600-  
WESTERN FLORIDA PANHANDLE  
 
CITY SKY/WX TMP DP RH WIND PRES REMARKS
 
PENSACOLA FAIR 27 13 55 N10 30.54R WCI 17  
NAS PENSACOLA FAIR 27 14 58 N8 30.54S WCI 19  
MILTON FAIR 25 14 63 N6 30.54R WCI 18  
WHTNG S FIELD FAIR 29 15 56 N9 30.54R WCI 20  
 
 
CITY SKY/WX TMP DP RH WIND PRES REMARKS
 
JAY* N/A 23 14 68 N9 30.54R WCI 13  
DUKE FIELD SUNNY 28 12 51 N9 30.51R WCI 19  
CRESTVIEW FAIR 28 12 51 N8 30.53R WCI 20  
VALPARAISO MOSUNNY 28 11 48 N13 30.51R WCI 18  
DESTIN FAIR 32 14 47 N10 30.52R WCI 24  
 

 
 
MSZ076-079-181600-  
INTERIOR SOUTHEAST MISSISSIPPI  
 
CITY SKY/WX TMP DP RH WIND PRES REMARKS
 
LEAKESVILLE* N/A 23 16 74 E7 30.58S WCI 15  
AGRICOLA* N/A 23 16 74 N7 30.55R WCI 15  
 

 
 
MARINE OBSERVATIONS  
 
STATION/POSITION TIME TEMP WIND PRES WAVE
 
AIR SEA DIR/SP/G HT/PER  
(UTC) (F) (DEG/KT/KT) (MB) (FT/S)  
PASCAGOULA 1442 25 10/ 11/ 15 1035.1R  
PETIT BOIS ISLND 1442 26 20/ 13/ 17 1035.9R  
GRAND BAY 1345 21 360/ 10 1035.0S  
KATRINA CUT 1430 24 30/ 14 1034.5R  
CEDAR POINT 1430 25 10/ 10 1033.9R  
E DAUPHIN ISLAND 1500 27 10/ 16/ 17 1034.4R  
MIDDLE BAY LIGHT 1430 27 10/ 18 1034.5R  
USCG MOBILE BAY 1442 24 49 10/ 9/ 12 1035.5R  
STATE DOCKS 1442 26 45 1035.1R  
MEAHER PARK 1430 23 360/ 6 1035.2R  
WEEKS BAY 1345 22 1034.0S  
FORT MORGAN 1442 27 20/ 15/ 18 N/A  
12 S ORANGE BCH NOT AVBL  
PENSACOLA BAY 1442 26 48 360/ 4/ 7 1034.6  
64 S DAUPHIN ISL 1450 42 20/ 14/ 19 1033.5R 5/ 6  
67 S FORT MORGAN 1430 43 1032.5R  
 

 
 
SELECTED LOCATIONS ACROSS THE REGION  
 
CITY SKY/WX TMP DP RH WIND PRES REMARKS
 
NEW ORLEANS FAIR 30 20 66 NE9 30.60R WCI 22  
GULFPORT FAIR 27 14 58 N7 30.59R WCI 19  
PASCAGOULA AP FAIR 27 12 53 N8 30.58R WCI 19  
PASCAGOULA* N/A 25 14 63 NE5 N/A WCI 19  
HATTIESBURG FAIR 23 15 71 N7 30.59S WCI 15  
LAUREL FAIR 27 16 63 N9 30.60R WCI 18  
MERIDIAN FAIR 23 15 71 VRB3 30.61R  
JACKSON FAIR 23 17 78 NE6 30.58S WCI 16  
MONTGOMERY FAIR 24 10 55 N7 30.54R WCI 16  
TROY FAIR 26 12 55 NE10 30.50R WCI 16  
ASHFORD* N/A 25 14 63 VRB6 30.50R WCI 18  
DOTHAN FAIR 28 12 51 N10 30.51R WCI 19  
PANAMA CITY FAIR 30 12 47 N8 30.48R WCI 22  
 

 
 
 
 
CLICK HERE TO GO TO PREVIOUS BULLETINS.

The Nexlab AL Page
The Nexlab FL Page
The Nexlab MS Page Main Text Page